Fort Belvoir, VA

4:32 PM EDT on August 30, 2016 (GMT -0400)
Davison Army Air Field

Weather History for KDAA - October, 2013

Change the Weather History Date:

Friday, October 11, 2013

  Actual Average Record
Temperature  
Mean Temperature 60 °F -  
Max Temperature 63 °F 69 °F 88 °F (2010)
Min Temperature 57 °F 46 °F 35 °F (2000)
Degree Days  
Heating Degree Days 5    
Growing Degree Days 10 (Base 50)    
Moisture  
Dew Point 61 °F    
Average Humidity 99    
Maximum Humidity 100    
Minimum Humidity 94    
Precipitation  
Precipitation 1.68 in - - ()
Sea Level Pressure  
Sea Level Pressure 29.96 in    
Wind  
Wind Speed 6 mph (NNW)    
Max Wind Speed 12 mph    
Max Gust Speed 18 mph    
Visibility 7 miles    
Events Rain , Thunderstorm    
Averages and records for this station are not official NWS values.
T = Trace of Precipitation, MM = Missing Value Source: NWS Daily Summary

Daily Weather History Graph

Daily Weather History Graph

Search for Another Location

Airport or City:

Trip Planner

Search our weather history database for the weather conditions in past years. The results will help you decide how hot, cold, wet, or windy it might be!

Date:

Astronomy

Oct. 11, 2013 Rise Set
Actual Time 7:14 AM EDT 6:35 PM EDT
Civil Twilight 6:47 AM EDT 7:02 PM EDT
Nautical Twilight 6:16 AM EDT 7:33 PM EDT
Astronomical Twilight 5:45 AM EDT 8:04 PM EDT
Moon 1:52 PM EDT (10/11) No Moon Set
Length of Visible Light 12h 14m
Length of Day
11h 21m
Waxing Crescent, 47% of the Moon is Illuminated
Oct 11
Waxing Crescent
Oct 11
First Quarter
Oct 18
Full
Oct 26
Last Quarter
Nov 3
New

Hourly Weather History & Observations

Time (EDT) Temp. Dew Point Humidity Pressure Visibility Wind Dir Wind Speed Gust Speed Precip Events Conditions
12:03 AM 57.2 °F 57.2 °F 100% 29.98 in 10.0 mi Variable 6.9 mph - N/A   Overcast
12:12 AM 57.2 °F 57.2 °F 100% 29.98 in 9.0 mi NNW 9.2 mph - N/A   Light Drizzle
12:27 AM 57.2 °F 57.2 °F 100% 29.98 in 10.0 mi NNW 6.9 mph - N/A   Light Drizzle
12:29 AM 57.2 °F 57.2 °F 100% 29.97 in 10.0 mi North 6.9 mph - N/A   Overcast
12:49 AM 57.2 °F 57.2 °F 100% 29.97 in 10.0 mi NNW 5.8 mph - N/A   Overcast
12:58 AM 57.2 °F 56.8 °F 99% 29.97 in 10.0 mi Variable 6.9 mph - 0.01 in   Overcast
1:33 AM 57.2 °F 57.2 °F 100% 29.96 in 10.0 mi Variable 5.8 mph - N/A   Overcast
1:38 AM 57.2 °F 57.2 °F 100% 29.96 in 10.0 mi Variable 5.8 mph - N/A   Overcast
1:58 AM 57.9 °F 57.0 °F 97% 29.97 in 10.0 mi North 8.1 mph - N/A   Overcast
2:03 AM 57.2 °F 57.2 °F 100% 29.96 in 6.0 mi Variable 4.6 mph - N/A Rain Light Rain
2:08 AM 57.2 °F 57.2 °F 100% 29.96 in 1.5 mi North 6.9 mph - N/A Rain Heavy Rain
2:13 AM 57.2 °F 57.2 °F 100% 29.96 in 0.8 mi North 8.1 mph - N/A Rain Heavy Rain
2:18 AM 57.2 °F 57.2 °F 100% 29.95 in 0.8 mi North 11.5 mph - N/A Rain Heavy Rain
2:23 AM 57.2 °F 57.2 °F 100% 29.95 in 1.0 mi NNW 8.1 mph 18.4 mph N/A Rain Heavy Rain
2:28 AM 57.2 °F 57.2 °F 100% 29.95 in 2.0 mi North 8.1 mph 18.4 mph N/A Rain Rain
2:33 AM 57.2 °F 57.2 °F 100% 29.95 in 7.0 mi Variable 6.9 mph - N/A Rain Light Rain
2:38 AM 57.2 °F 57.2 °F 100% 29.95 in 9.0 mi Variable 5.8 mph - N/A Rain Light Rain
2:50 AM 57.2 °F 57.2 °F 100% 29.95 in 10.0 mi Variable 4.6 mph - N/A   Overcast
2:58 AM 57.2 °F 57.2 °F 100% 29.96 in 10.0 mi Variable 4.6 mph - 0.66 in   Overcast
3:13 AM 59.0 °F 57.2 °F 94% 29.94 in 10.0 mi Variable 4.6 mph - N/A   Overcast
3:18 AM 59.0 °F 57.2 °F 94% 29.94 in 10.0 mi Variable 5.8 mph - N/A   Overcast
3:28 AM 59.0 °F 57.2 °F 94% 29.94 in 10.0 mi NNW 5.8 mph - N/A   Overcast
3:38 AM 59.0 °F 57.2 °F 94% 29.94 in 10.0 mi Variable 4.6 mph - N/A   Overcast
3:58 AM 58.3 °F 58.1 °F 99% 29.95 in 10.0 mi NNW 8.1 mph - N/A   Overcast
4:13 AM 59.0 °F 57.2 °F 94% 29.94 in 10.0 mi NNW 6.9 mph - N/A Rain Light Rain
4:28 AM 59.0 °F 57.2 °F 94% 29.94 in 10.0 mi NNW 5.8 mph - N/A   Overcast
4:58 AM 58.3 °F 57.9 °F 99% 29.95 in 10.0 mi NW 6.9 mph - 0.00 in   Overcast
5:31 AM 59.0 °F 59.0 °F 100% 29.94 in 7.0 mi NW 8.1 mph - N/A   Overcast
5:36 AM 59.0 °F 59.0 °F 100% 29.94 in 10.0 mi NW 6.9 mph - N/A   Overcast
5:46 AM 59.0 °F 59.0 °F 100% 29.94 in 9.0 mi NNW 5.8 mph - N/A   Overcast
5:58 AM 58.3 °F 57.9 °F 99% 29.96 in 9.0 mi NNW 4.6 mph - 0.01 in   Overcast
6:03 AM 59.0 °F 57.2 °F 94% 29.95 in 10.0 mi NW 5.8 mph - N/A   Overcast
6:28 AM 59.0 °F 59.0 °F 100% 29.95 in 9.0 mi NNW 5.8 mph - N/A   Overcast
6:58 AM 59.0 °F 57.2 °F 94% 29.96 in 9.0 mi NW 8.1 mph - N/A   Overcast
7:03 AM 59.0 °F 59.0 °F 100% 29.95 in 10.0 mi NW 6.9 mph - N/A   Overcast
7:48 AM 59.0 °F 59.0 °F 100% 29.95 in 10.0 mi NW 8.1 mph - N/A Rain Light Rain
7:58 AM 58.6 °F 58.1 °F 98% 29.96 in 10.0 mi NW 10.4 mph - 0.00 in Rain Light Rain
8:03 AM 59.0 °F 57.2 °F 94% 29.95 in 10.0 mi NNW 6.9 mph - N/A Rain Light Rain
8:11 AM 59.0 °F 59.0 °F 100% 29.95 in 10.0 mi NW 8.1 mph - N/A   Overcast
8:43 AM 59.0 °F 59.0 °F 100% 29.96 in 10.0 mi NNW 5.8 mph - N/A Rain Light Rain
8:58 AM 59.2 °F 58.5 °F 97% 29.97 in 10.0 mi Variable 4.6 mph - 0.00 in Rain Light Rain
9:08 AM 59.0 °F 59.0 °F 100% 29.96 in 7.0 mi NW 6.9 mph - N/A Rain Light Rain
9:38 AM 60.8 °F 59.0 °F 94% 29.96 in 10.0 mi NW 8.1 mph - N/A   Light Drizzle
9:40 AM 60.8 °F 59.0 °F 94% 29.96 in 10.0 mi Variable 6.9 mph - N/A   Overcast
9:45 AM 60.8 °F 59.0 °F 94% 29.96 in 10.0 mi NW 6.9 mph - N/A   Overcast
9:58 AM 60.1 °F 59.2 °F 97% 29.97 in 10.0 mi NNW 6.9 mph - 0.02 in   Overcast
10:18 AM 60.8 °F 59.0 °F 94% 29.97 in 10.0 mi NNW 5.8 mph - N/A   Overcast
10:26 AM 60.8 °F 60.8 °F 100% 29.97 in 10.0 mi Variable 5.8 mph - N/A   Light Drizzle
10:31 AM 60.8 °F 60.8 °F 100% 29.97 in 8.0 mi NNW 4.6 mph - N/A Rain Light Rain
10:46 AM 60.8 °F 60.8 °F 100% 29.97 in 5.0 mi NNW 5.8 mph - N/A Rain Light Rain
10:51 AM 60.8 °F 60.8 °F 100% 29.97 in 4.0 mi NNW 5.8 mph - N/A Rain Rain
10:58 AM 60.6 °F 60.3 °F 99% 29.98 in 4.0 mi Variable 4.6 mph - 0.02 in Rain Rain
11:08 AM 60.8 °F 60.8 °F 100% 29.97 in 2.5 mi NNW 4.6 mph - N/A Rain Rain
11:18 AM 60.8 °F 60.8 °F 100% 29.96 in 3.0 mi NW 5.8 mph - N/A Rain Heavy Rain
11:23 AM 60.8 °F 60.8 °F 100% 29.96 in 3.0 mi NW 5.8 mph - N/A Rain Rain
11:33 AM 60.8 °F 60.8 °F 100% 29.96 in 3.0 mi NW 5.8 mph - N/A Rain Rain
11:38 AM 60.8 °F 60.8 °F 100% 29.96 in 3.0 mi NW 5.8 mph - N/A Rain Heavy Rain
11:43 AM 60.8 °F 60.8 °F 100% 29.96 in 1.8 mi NW 5.8 mph - N/A Rain Heavy Rain
11:48 AM 60.8 °F 60.8 °F 100% 29.97 in 1.2 mi NW 3.5 mph - N/A Rain Heavy Rain
11:58 AM 60.4 °F 60.1 °F 99% 29.98 in 1.2 mi NW 5.8 mph - 0.26 in Rain Heavy Rain
12:03 PM 60.8 °F 60.8 °F 100% 29.96 in 4.0 mi NW 6.9 mph - N/A Rain Light Rain
12:13 PM 60.8 °F 60.8 °F 100% 29.96 in 7.0 mi NW 8.1 mph - N/A Rain Light Rain
12:28 PM 60.8 °F 60.8 °F 100% 29.96 in 10.0 mi NW 6.9 mph - N/A   Light Drizzle
12:35 PM 60.8 °F 60.8 °F 100% 29.96 in 10.0 mi NW 8.1 mph - N/A   Overcast
12:39 PM 60.8 °F 60.8 °F 100% 29.96 in 10.0 mi NW 9.2 mph - N/A   Light Drizzle
12:49 PM 60.8 °F 60.8 °F 100% 29.96 in 10.0 mi NW 9.2 mph - N/A   Light Drizzle
12:58 PM 61.5 °F 61.3 °F 99% 29.97 in 5.0 mi NW 9.2 mph - 0.02 in Rain Rain
1:38 PM 62.6 °F 62.6 °F 100% 29.95 in 2.5 mi NNW 6.9 mph - N/A Rain Rain
1:43 PM 62.6 °F 62.6 °F 100% 29.95 in 3.0 mi NNW 5.8 mph - N/A Rain Light Rain
1:48 PM 62.6 °F 62.6 °F 100% 29.95 in 3.0 mi NW 6.9 mph - N/A Rain Light Rain
1:53 PM 62.6 °F 62.6 °F 100% 29.94 in 3.0 mi NW 8.1 mph - N/A Rain Light Rain
1:58 PM 62.2 °F 61.9 °F 99% 29.95 in 3.0 mi Variable 6.9 mph - 0.06 in Rain Rain
2:08 PM 62.6 °F 62.6 °F 100% 29.94 in 4.0 mi NNW 6.9 mph - N/A Rain Light Rain
2:18 PM 62.6 °F 62.6 °F 100% 29.94 in 3.0 mi NNW 9.2 mph - N/A Rain Light Rain
2:23 PM 62.6 °F 62.6 °F 100% 29.94 in 4.0 mi NW 6.9 mph - N/A Rain Light Rain
2:28 PM 62.6 °F 62.6 °F 100% 29.94 in 4.0 mi NW 8.1 mph - N/A Rain Light Rain
2:53 PM 62.6 °F 62.6 °F 100% 29.94 in 10.0 mi Variable 6.9 mph - N/A   Light Drizzle
2:54 PM 62.6 °F 62.6 °F 100% 29.94 in 10.0 mi Variable 5.8 mph - N/A   Overcast
2:58 PM 63.1 °F 62.8 °F 99% 29.95 in 10.0 mi NNW 5.8 mph - 0.03 in   Overcast
3:17 PM 62.6 °F 62.6 °F 100% 29.94 in 10.0 mi NW 8.1 mph - N/A Rain Light Rain
3:32 PM 62.6 °F 62.6 °F 100% 29.94 in 10.0 mi NNW 8.1 mph - N/A Rain Light Rain
3:36 PM 62.6 °F 62.6 °F 100% 29.94 in 10.0 mi NNW 5.8 mph - N/A   Overcast
3:58 PM 63.1 °F 62.1 °F 96% 29.95 in 10.0 mi NNW 6.9 mph - 0.00 in   Overcast
4:04 PM 62.6 °F 62.6 °F 100% 29.94 in 9.0 mi NNW 3.5 mph - N/A   Light Drizzle
4:17 PM 62.6 °F 62.6 °F 100% 29.94 in 10.0 mi NNW 3.5 mph - N/A   Overcast
4:22 PM 62.6 °F 62.6 °F 100% 29.94 in 10.0 mi NNW 5.8 mph - N/A Rain Light Rain
4:27 PM 62.6 °F 62.6 °F 100% 29.94 in 9.0 mi NNW 4.6 mph - N/A Rain Light Rain
4:47 PM 62.6 °F 62.6 °F 100% 29.94 in 9.0 mi NNW 5.8 mph - N/A   Light Drizzle
4:55 PM 62.6 °F 62.6 °F 100% 29.94 in 10.0 mi Variable 4.6 mph - N/A   Overcast
4:56 PM 62.6 °F 62.6 °F 100% 29.94 in 10.0 mi Variable 4.6 mph - N/A   Light Drizzle
4:59 PM 62.6 °F 62.6 °F 100% 29.95 in 10.0 mi NW 4.6 mph - 0.00 in   Light Drizzle
5:29 PM 62.6 °F 62.6 °F 100% 29.95 in 5.0 mi Variable 4.6 mph - N/A Rain Rain
5:58 PM 62.2 °F 61.9 °F 99% 29.96 in 4.0 mi NNW 5.8 mph - 0.05 in Rain Light Rain
6:03 PM 62.6 °F 62.6 °F 100% 29.95 in 4.0 mi NNW 5.8 mph - N/A Rain Rain
6:18 PM 62.6 °F 62.6 °F 100% 29.95 in 9.0 mi Variable 4.6 mph - N/A Rain Light Rain
6:28 PM 62.6 °F 62.6 °F 100% 29.96 in 1.8 mi NNW 5.8 mph - N/A Rain Heavy Rain
6:33 PM 62.6 °F 62.6 °F 100% 29.96 in 1.8 mi NW 5.8 mph - N/A Rain Heavy Rain
6:38 PM 62.6 °F 62.6 °F 100% 29.96 in 2.5 mi NNW 5.8 mph - N/A Rain Rain
6:43 PM 62.6 °F 62.6 °F 100% 29.96 in 3.0 mi Variable 5.8 mph - N/A Rain Rain
6:48 PM 62.6 °F 62.6 °F 100% 29.96 in 4.0 mi NNW 5.8 mph - N/A Rain Rain
6:53 PM 62.6 °F 62.6 °F 100% 29.96 in 6.0 mi NW 5.8 mph - N/A Rain Light Rain
6:58 PM 62.2 °F 61.9 °F 99% 29.97 in 8.0 mi Variable 5.8 mph - 0.16 in Rain Light Rain
7:23 PM 62.6 °F 62.6 °F 100% 29.97 in 4.0 mi NW 3.5 mph - N/A Rain Rain
7:33 PM 62.6 °F 62.6 °F 100% 29.97 in 6.0 mi NNW 4.6 mph - N/A Rain Light Rain
7:43 PM 62.6 °F 62.6 °F 100% 29.97 in 4.0 mi Variable 4.6 mph - N/A Rain Rain
7:48 PM 62.6 °F 62.6 °F 100% 29.97 in 4.0 mi North 4.6 mph - N/A Rain , Thunderstorm Light Thunderstorms and Rain
7:53 PM 62.6 °F 62.6 °F 100% 29.98 in 2.0 mi North 4.6 mph - N/A Rain , Thunderstorm Light Thunderstorms and Rain
7:58 PM 62.6 °F 62.2 °F 99% 29.99 in 4.0 mi NNW 5.8 mph - 0.11 in Rain , Thunderstorm Light Thunderstorms and Rain
7:59 PM 62.6 °F 62.6 °F 100% 29.98 in 4.0 mi NNW 5.8 mph - N/A Rain Rain
8:03 PM 62.6 °F 62.6 °F 100% 29.97 in 4.0 mi NNW 5.8 mph - N/A Rain Rain
8:13 PM 62.6 °F 62.6 °F 100% 29.98 in 3.0 mi NNW 4.6 mph - N/A Rain Heavy Rain
8:23 PM 62.6 °F 62.6 °F 100% 29.98 in 6.0 mi North 3.5 mph - N/A Rain Rain
8:28 PM 62.6 °F 62.6 °F 100% 29.98 in 4.0 mi Variable 4.6 mph - N/A Rain Rain
8:43 PM 62.6 °F 62.6 °F 100% 29.98 in 6.0 mi Variable 4.6 mph - N/A Rain Light Rain
8:53 PM 62.6 °F 62.6 °F 100% 29.97 in 10.0 mi Variable 3.5 mph - N/A Rain Light Rain
8:58 PM 62.6 °F 62.4 °F 99% 29.98 in 10.0 mi Variable 3.5 mph - 0.13 in Rain Light Rain
9:18 PM 62.6 °F 62.6 °F 100% 29.98 in 9.0 mi Variable 2.3 mph - N/A Rain Light Rain
9:23 PM 62.6 °F 62.6 °F 100% 29.98 in 5.0 mi Variable 2.3 mph - N/A Rain Light Rain
9:28 PM 62.6 °F 62.6 °F 100% 29.98 in 3.0 mi North 5.8 mph - N/A Rain Heavy Rain
9:33 PM 62.6 °F 62.6 °F 100% 29.99 in 3.0 mi Variable 4.6 mph - N/A Rain Rain
9:38 PM 62.6 °F 62.6 °F 100% 29.99 in 5.0 mi Variable 5.8 mph - N/A Rain Rain
9:43 PM 62.6 °F 62.6 °F 100% 29.98 in 5.0 mi Variable 4.6 mph - N/A Rain Rain
9:48 PM 62.6 °F 62.6 °F 100% 29.98 in 5.0 mi Variable 4.6 mph - N/A Rain Rain
9:58 PM 62.8 °F 62.4 °F 99% 29.99 in 6.0 mi Variable 4.6 mph - 0.12 in Rain Rain
10:03 PM 62.6 °F 62.6 °F 100% 29.98 in 7.0 mi Variable 4.6 mph - N/A Rain Light Rain
10:08 PM 62.6 °F 62.6 °F 100% 29.98 in 10.0 mi Variable 5.8 mph - N/A Rain Light Rain
10:18 PM 62.6 °F 62.6 °F 100% 29.98 in 10.0 mi Variable 2.3 mph - N/A   Light Drizzle
10:35 PM 62.6 °F 62.6 °F 100% 29.99 in 10.0 mi Variable 4.6 mph - N/A   Mostly Cloudy
10:58 PM 63.0 °F 62.6 °F 99% 30.00 in 10.0 mi Variable 3.5 mph - 0.02 in   Overcast
11:01 PM 62.6 °F 62.6 °F 100% 29.98 in 10.0 mi Variable 4.6 mph - N/A   Light Drizzle
11:06 PM 62.6 °F 62.6 °F 100% 29.98 in 9.0 mi Variable 2.3 mph - N/A   Light Drizzle
11:21 PM 62.6 °F 62.6 °F 100% 29.98 in 10.0 mi Variable 4.6 mph - N/A   Light Drizzle
11:22 PM 62.6 °F 62.6 °F 100% 29.98 in 10.0 mi Variable 5.8 mph - N/A   Overcast
11:47 PM 62.6 °F 62.6 °F 100% 29.98 in 8.0 mi Variable 5.8 mph - N/A   Overcast
11:58 PM 63.0 °F 62.8 °F 99% 29.99 in 6.0 mi Variable 4.6 mph - 0.00 in   Overcast